JAL265 RJTT-RJOA

Flight info

Callsign JAL265
Flight time 1h 11m
Altitude 30000
Route TIARA GUSRO Y20 KAMMY Y202 AMURO
Aircraft B738/M-SDE2E3FGHIRWYZ/LB1

Departure

Time 2026-04-30 12:20
Airport Tokyo Haneda International Airport (RJTT)

Arrival

Time 2026-04-30 13:31
Airport Hiroshima Airport (RJOA)
Time Latitude Longitude Altitude Speed Heading
2026-04-30 12:06 35.54533 139.78468 22 ft 0 kts 77°
2026-04-30 12:09 35.54529 139.78447 22 ft 3 kts 76°
2026-04-30 12:10 35.54524 139.78420 25 ft 3 kts 75°
2026-04-30 12:10 35.54518 139.78393 22 ft 3 kts 77°
2026-04-30 12:10 35.54514 139.78371 27 ft 3 kts 92°
2026-04-30 12:10 35.54519 139.78346 24 ft 3 kts 127°
2026-04-30 12:11 35.54535 139.78327 28 ft 3 kts 149°
2026-04-30 12:11 35.54538 139.78326 28 ft 1 kts 149°
2026-04-30 12:13 35.54534 139.78329 28 ft 3 kts 149°
2026-04-30 12:13 35.54490 139.78362 23 ft 11 kts 147°
2026-04-30 12:14 35.54422 139.78408 24 ft 11 kts 149°
2026-04-30 12:14 35.54356 139.78456 26 ft 11 kts 152°
2026-04-30 12:14 35.54298 139.78510 28 ft 11 kts 114°
2026-04-30 12:14 35.54312 139.78594 27 ft 10 kts 60°
2026-04-30 12:15 35.54347 139.78669 29 ft 10 kts 60°
2026-04-30 12:15 35.54381 139.78742 31 ft 10 kts 59°
2026-04-30 12:15 35.54414 139.78813 33 ft 10 kts 59°
2026-04-30 12:15 35.54462 139.78913 35 ft 18 kts 59°
2026-04-30 12:16 35.54541 139.79079 37 ft 28 kts 60°
2026-04-30 12:16 35.54661 139.79332 27 ft 39 kts 59°
2026-04-30 12:16 35.54779 139.79581 25 ft 23 kts 59°
2026-04-30 12:16 35.54752 139.79703 25 ft 16 kts 149°
2026-04-30 12:17 35.54461 139.79911 22 ft 29 kts 149°
2026-04-30 12:17 35.54292 139.80029 22 ft 27 kts 152°
2026-04-30 12:17 35.54133 139.80143 21 ft 26 kts 150°
2026-04-30 12:18 35.53987 139.80246 25 ft 22 kts 150°
2026-04-30 12:18 35.53912 139.80334 26 ft 13 kts 102°
2026-04-30 12:18 35.53945 139.80432 31 ft 13 kts 56°
2026-04-30 12:18 35.53987 139.80500 32 ft 6 kts 24°
2026-04-30 12:19 35.54025 139.80474 32 ft 4 kts 329°
2026-04-30 12:19 35.54055 139.80451 31 ft 24 kts 328°
2026-04-30 12:19 35.54409 139.80202 27 ft 91 kts 329°
2026-04-30 12:19 35.55126 139.79696 33 ft 144 kts 331°
2026-04-30 12:20 35.56023 139.79058 486 ft 153 kts 332°
2026-04-30 12:20 35.56992 139.78376 949 ft 168 kts 336°
2026-04-30 12:20 35.58132 139.78237 1436 ft 169 kts 25°
2026-04-30 12:20 35.59074 139.79069 2098 ft 168 kts 41°
2026-04-30 12:21 35.60006 139.79973 2711 ft 173 kts 42°
2026-04-30 12:21 35.60964 139.80898 3297 ft 180 kts 43°
2026-04-30 12:21 35.62018 139.81921 3566 ft 206 kts 43°
2026-04-30 12:21 35.63199 139.83064 3764 ft 226 kts 42°
2026-04-30 12:22 35.64501 139.84279 3981 ft 244 kts 34°
2026-04-30 12:22 35.66165 139.84964 4256 ft 265 kts 12°
2026-04-30 12:22 35.68032 139.85355 4647 ft 278 kts 12°
2026-04-30 12:22 35.69979 139.85518 5312 ft 285 kts 351°
2026-04-30 12:23 35.71812 139.84630 6057 ft 286 kts 325°
2026-04-30 12:23 35.73424 139.83201 6803 ft 286 kts 321°
2026-04-30 12:23 35.74938 139.81623 7508 ft 285 kts 305°
2026-04-30 12:23 35.75800 139.79485 8223 ft 277 kts 281°
2026-04-30 12:24 35.76138 139.77170 8999 ft 274 kts 273°
2026-04-30 12:24 35.76350 139.74837 9749 ft 274 kts 271°
2026-04-30 12:24 35.76259 139.72507 10305 ft 276 kts 252°
2026-04-30 12:24 35.75491 139.70264 10475 ft 294 kts 240°
2026-04-30 12:25 35.74499 139.67965 10653 ft 315 kts 240°
2026-04-30 12:25 35.73429 139.65523 10854 ft 330 kts 240°
2026-04-30 12:25 35.72363 139.63068 11803 ft 321 kts 241°
2026-04-30 12:25 35.71325 139.60658 12653 ft 319 kts 242°
2026-04-30 12:26 35.70286 139.58232 13286 ft 324 kts 243°
2026-04-30 12:26 35.69589 139.56598 13698 ft 327 kts 243°
2026-04-30 12:26 35.68524 139.54100 14315 ft 331 kts 243°
2026-04-30 12:26 35.67455 139.51592 14983 ft 332 kts 243°
2026-04-30 12:27 35.66382 139.49061 15658 ft 334 kts 246°
2026-04-30 12:27 35.65725 139.46339 16318 ft 334 kts 264°
2026-04-30 12:27 35.65675 139.43484 17032 ft 334 kts 271°
2026-04-30 12:27 35.65751 139.40617 17687 ft 337 kts 271°
2026-04-30 12:28 35.65822 139.37735 18322 ft 339 kts 271°
2026-04-30 12:28 35.65874 139.34821 18903 ft 341 kts 270°
2026-04-30 12:28 35.65918 139.31910 19525 ft 340 kts 270°
2026-04-30 12:28 35.65963 139.29011 20169 ft 339 kts 270°
2026-04-30 12:29 35.66009 139.26118 20796 ft 338 kts 269°
2026-04-30 12:29 35.66055 139.23229 21409 ft 338 kts 269°
2026-04-30 12:29 35.66100 139.20338 21965 ft 338 kts 269°
2026-04-30 12:29 35.66143 139.17446 22534 ft 339 kts 269°
2026-04-30 12:30 35.66185 139.14541 23039 ft 340 kts 268°
2026-04-30 12:30 35.66155 139.11638 23630 ft 340 kts 265°
2026-04-30 12:30 35.66040 139.08738 24127 ft 340 kts 264°
2026-04-30 12:30 35.65901 139.05832 24555 ft 341 kts 264°
2026-04-30 12:31 35.65756 139.02918 24957 ft 343 kts 264°
2026-04-30 12:31 35.65613 138.99985 25392 ft 344 kts 264°
2026-04-30 12:31 35.65474 138.97045 25822 ft 345 kts 264°
2026-04-30 12:31 35.65338 138.94094 26247 ft 346 kts 263°
2026-04-30 12:32 35.65203 138.91133 26623 ft 348 kts 264°
2026-04-30 12:32 35.65068 138.88152 26967 ft 351 kts 263°
2026-04-30 12:32 35.64932 138.85151 27289 ft 353 kts 263°
2026-04-30 12:32 35.64794 138.82129 27651 ft 355 kts 263°
2026-04-30 12:33 35.64586 138.79097 32684 ft 362 kts 261°
2026-04-30 12:33 35.64443 138.76010 32492 ft 370 kts 264°
2026-04-30 12:33 35.64337 138.72779 32235 ft 374 kts 263°
2026-04-30 12:33 35.64214 138.69588 31989 ft 373 kts 263°
2026-04-30 12:34 35.64073 138.66411 31749 ft 372 kts 263°
2026-04-30 12:34 35.63915 138.63242 31498 ft 371 kts 262°
2026-04-30 12:34 35.63750 138.60079 31260 ft 371 kts 262°
2026-04-30 12:34 35.63581 138.56910 31024 ft 372 kts 262°
2026-04-30 12:35 35.63412 138.53736 30787 ft 373 kts 262°
2026-04-30 12:35 35.63243 138.50551 30554 ft 374 kts 262°
2026-04-30 12:35 35.63075 138.47361 30398 ft 374 kts 262°
2026-04-30 12:35 35.62906 138.44169 30311 ft 374 kts 262°
2026-04-30 12:36 35.62566 138.37790 30172 ft 380 kts 262°
2026-04-30 12:36 35.62215 138.31252 30204 ft 384 kts 262°
2026-04-30 12:37 35.61861 138.24688 30182 ft 385 kts 262°
2026-04-30 12:37 35.61503 138.18201 30170 ft 377 kts 262°
2026-04-30 12:38 35.61144 138.11768 30151 ft 377 kts 261°
2026-04-30 12:38 35.60771 138.05334 30136 ft 377 kts 261°
2026-04-30 12:39 35.60405 137.98896 30140 ft 378 kts 261°
2026-04-30 12:39 35.60041 137.92449 30113 ft 378 kts 261°
2026-04-30 12:40 35.59673 137.86008 30103 ft 377 kts 261°
2026-04-30 12:40 35.59297 137.79584 30098 ft 377 kts 260°
2026-04-30 12:41 35.58838 137.73157 30112 ft 379 kts 259°
2026-04-30 12:41 35.58337 137.66692 30087 ft 381 kts 259°
2026-04-30 12:42 35.57846 137.60199 30079 ft 383 kts 259°
2026-04-30 12:42 35.57338 137.53699 30082 ft 381 kts 257°
2026-04-30 12:43 35.56123 137.47433 30092 ft 377 kts 251°
2026-04-30 12:43 35.54753 137.41217 30058 ft 377 kts 251°
2026-04-30 12:44 35.53400 137.34982 30048 ft 378 kts 251°
2026-04-30 12:44 35.52044 137.28742 30064 ft 379 kts 251°
2026-04-30 12:45 35.50672 137.22485 30059 ft 380 kts 251°
2026-04-30 12:45 35.49283 137.16257 30047 ft 382 kts 251°
2026-04-30 12:46 35.47882 137.09980 30052 ft 381 kts 251°
2026-04-30 12:46 35.46483 137.03704 30065 ft 381 kts 251°
2026-04-30 12:47 35.45088 136.97459 30047 ft 379 kts 250°
2026-04-30 12:47 35.43698 136.91243 30049 ft 377 kts 250°
2026-04-30 12:48 35.42308 136.85050 30046 ft 376 kts 250°
2026-04-30 12:48 35.40919 136.78874 30035 ft 375 kts 250°
2026-04-30 12:49 35.39529 136.72714 30041 ft 375 kts 250°
2026-04-30 12:49 35.38132 136.66536 30042 ft 376 kts 250°
2026-04-30 12:50 35.36732 136.60354 30039 ft 377 kts 250°
2026-04-30 12:50 35.35323 136.54148 30034 ft 378 kts 250°
2026-04-30 12:51 35.33913 136.47941 30017 ft 379 kts 249°
2026-04-30 12:51 35.32493 136.41728 30037 ft 379 kts 249°
2026-04-30 12:52 35.31069 136.35518 30013 ft 379 kts 249°
2026-04-30 12:52 35.29636 136.29275 30018 ft 382 kts 249°
2026-04-30 12:53 35.28193 136.22996 30008 ft 384 kts 249°
2026-04-30 12:53 35.26755 136.16735 29996 ft 378 kts 248°
2026-04-30 12:54 35.25340 136.10596 30011 ft 379 kts 248°
2026-04-30 12:54 35.23888 136.04325 30002 ft 382 kts 248°
2026-04-30 12:55 35.22435 135.98051 29993 ft 384 kts 248°
2026-04-30 12:55 35.20976 135.91754 29988 ft 385 kts 248°
2026-04-30 12:56 35.19520 135.85497 30001 ft 385 kts 248°
2026-04-30 12:56 35.18074 135.79181 29979 ft 387 kts 250°
2026-04-30 12:57 35.16970 135.72744 29971 ft 387 kts 252°
2026-04-30 12:57 35.15903 135.66330 29966 ft 385 kts 252°
2026-04-30 12:58 35.14830 135.59950 29965 ft 382 kts 251°
2026-04-30 12:58 35.13753 135.53604 29968 ft 381 kts 252°
2026-04-30 12:59 35.12674 135.47259 29990 ft 382 kts 252°
2026-04-30 12:59 35.11589 135.40909 29969 ft 382 kts 252°
2026-04-30 13:00 35.10502 135.34552 29957 ft 383 kts 252°
2026-04-30 13:00 35.09405 135.28182 29960 ft 384 kts 252°
2026-04-30 13:01 35.08308 135.21790 29955 ft 386 kts 252°
2026-04-30 13:01 35.07209 135.15372 29939 ft 386 kts 252°
2026-04-30 13:02 35.06111 135.08970 29937 ft 384 kts 252°
2026-04-30 13:02 35.05017 135.02595 29964 ft 381 kts 252°
2026-04-30 13:03 35.03925 134.96245 29948 ft 384 kts 252°
2026-04-30 13:03 35.02813 134.89864 29930 ft 385 kts 252°
2026-04-30 13:04 35.01688 134.83518 29951 ft 385 kts 252°
2026-04-30 13:04 35.00554 134.77116 29894 ft 387 kts 252°
2026-04-30 13:05 34.99412 134.70698 29917 ft 387 kts 252°
2026-04-30 13:06 34.97466 134.61142 29951 ft 388 kts 250°
2026-04-30 13:06 34.96045 134.54788 29938 ft 389 kts 250°
2026-04-30 13:07 34.94682 134.48534 29533 ft 373 kts 250°
2026-04-30 13:07 34.94027 134.45510 29105 ft 366 kts 250°
2026-04-30 13:07 34.93381 134.42542 28705 ft 360 kts 250°
2026-04-30 13:07 34.92740 134.39608 28262 ft 356 kts 250°
2026-04-30 13:08 34.92107 134.36698 27731 ft 354 kts 250°
2026-04-30 13:08 34.91483 134.33809 27256 ft 351 kts 250°
2026-04-30 13:08 34.90865 134.30955 26830 ft 347 kts 250°
2026-04-30 13:08 34.90253 134.28121 26379 ft 344 kts 250°
2026-04-30 13:09 34.89647 134.25309 25943 ft 342 kts 250°
2026-04-30 13:09 34.89044 134.22519 25515 ft 340 kts 250°
2026-04-30 13:09 34.88441 134.19746 25084 ft 338 kts 250°
2026-04-30 13:09 34.87839 134.16982 24438 ft 341 kts 250°
2026-04-30 13:10 34.87215 134.14176 23882 ft 344 kts 250°
2026-04-30 13:10 34.86587 134.11365 23415 ft 343 kts 250°
2026-04-30 13:10 34.85961 134.08560 22875 ft 342 kts 250°
2026-04-30 13:10 34.85341 134.05776 22448 ft 339 kts 250°
2026-04-30 13:11 34.84728 134.03017 22032 ft 336 kts 250°
2026-04-30 13:11 34.84120 134.00284 21626 ft 333 kts 251°
2026-04-30 13:11 34.83517 133.97577 21208 ft 330 kts 251°
2026-04-30 13:11 34.82917 133.94887 20769 ft 328 kts 251°
2026-04-30 13:12 34.82323 133.92228 20386 ft 325 kts 251°
2026-04-30 13:12 34.81741 133.89623 20008 ft 322 kts 251°
2026-04-30 13:12 34.81154 133.86996 19614 ft 321 kts 251°
2026-04-30 13:13 34.79985 133.81784 18838 ft 318 kts 251°
2026-04-30 13:13 34.79403 133.79194 18437 ft 317 kts 251°
2026-04-30 13:13 34.78244 133.74038 17571 ft 315 kts 251°
2026-04-30 13:14 34.77667 133.71473 17150 ft 313 kts 251°
2026-04-30 13:14 34.77095 133.68933 16760 ft 311 kts 251°
2026-04-30 13:14 34.76143 133.64709 16110 ft 307 kts 251°
2026-04-30 13:15 34.75579 133.62212 15741 ft 306 kts 251°
2026-04-30 13:15 34.74461 133.57250 14973 ft 302 kts 251°
2026-04-30 13:15 34.73902 133.54789 14607 ft 301 kts 251°
2026-04-30 13:16 34.73345 133.52338 14229 ft 301 kts 251°
2026-04-30 13:16 34.72787 133.49885 13835 ft 302 kts 252°
2026-04-30 13:16 34.72227 133.47424 13426 ft 301 kts 252°
2026-04-30 13:17 34.71117 133.42535 12644 ft 297 kts 251°
2026-04-30 13:17 34.70567 133.40115 12218 ft 298 kts 252°
2026-04-30 13:17 34.69481 133.35327 11500 ft 294 kts 251°
2026-04-30 13:18 34.68890 133.32914 11004 ft 296 kts 249°
2026-04-30 13:18 34.67514 133.28273 10497 ft 287 kts 248°
2026-04-30 13:18 34.66845 133.26018 10376 ft 280 kts 248°
2026-04-30 13:19 34.66200 133.23825 10239 ft 272 kts 248°
2026-04-30 13:19 34.65575 133.21691 10134 ft 264 kts 248°
2026-04-30 13:19 34.64969 133.19617 10019 ft 257 kts 248°
2026-04-30 13:19 34.64367 133.17571 9730 ft 257 kts 247°
2026-04-30 13:20 34.63767 133.15531 9460 ft 256 kts 247°
2026-04-30 13:20 34.63170 133.13493 9164 ft 256 kts 247°
2026-04-30 13:20 34.62574 133.11461 8882 ft 255 kts 246°
2026-04-30 13:20 34.61981 133.09435 8607 ft 254 kts 246°
2026-04-30 13:21 34.61391 133.07424 8334 ft 252 kts 246°
2026-04-30 13:21 34.60804 133.05426 8048 ft 251 kts 246°
2026-04-30 13:21 34.60224 133.03442 7814 ft 249 kts 247°
2026-04-30 13:22 34.59097 132.99474 7248 ft 249 kts 250°
2026-04-30 13:22 34.58574 132.97502 6991 ft 243 kts 242°
2026-04-30 13:22 34.57255 132.93603 6475 ft 254 kts 244°
2026-04-30 13:23 34.56679 132.91574 6203 ft 254 kts 245°
2026-04-30 13:23 34.55535 132.87560 5687 ft 251 kts 244°
2026-04-30 13:24 34.54399 132.83696 5492 ft 235 kts 244°
2026-04-30 13:24 34.53303 132.80033 5248 ft 224 kts 240°
2026-04-30 13:25 34.52311 132.76618 4963 ft 204 kts 242°
2026-04-30 13:25 34.51410 132.73550 4521 ft 175 kts 221°
2026-04-30 13:26 34.48006 132.72166 3903 ft 180 kts 195°
2026-04-30 13:26 34.45783 132.71876 3413 ft 152 kts 150°
2026-04-30 13:27 34.44418 132.73666 3382 ft 162 kts 132°
2026-04-30 13:28 34.43642 132.77308 3191 ft 138 kts 95°
2026-04-30 13:28 34.43606 132.79769 2815 ft 148 kts 92°
2026-04-30 13:28 34.43605 132.81023 2613 ft 151 kts 92°
2026-04-30 13:29 34.43602 132.83547 2207 ft 151 kts 91°
2026-04-30 13:29 34.43602 132.86091 1798 ft 150 kts 89°
2026-04-30 13:30 34.43608 132.89932 1204 ft 153 kts 89°
2026-04-30 13:31 34.43607 132.92111 1077 ft 90 kts 90°
2026-04-30 13:31 34.43607 132.93120 1075 ft 21 kts 89°
2026-04-30 13:32 34.43607 132.93461 1077 ft 20 kts 85°
2026-04-30 13:32 34.43771 132.93461 1071 ft 18 kts 273°
2026-04-30 13:33 34.43772 132.93159 1077 ft 19 kts 270°
2026-04-30 13:33 34.43772 132.92755 1081 ft 27 kts 270°
2026-04-30 13:34 34.43771 132.92514 1079 ft 32 kts 271°
2026-04-30 13:34 34.43783 132.91924 1074 ft 1 kts 348°
2026-04-30 13:35 34.43790 132.91925 1077 ft 1 kts
2026-04-30 13:35 34.43869 132.91930 1079 ft 7 kts
2026-04-30 13:36 34.43895 132.91930 1077 ft 0 kts